| time (UTC) | temp F | wind direction | speed MPH | gust MPH | rain 1hr in | rain 24hr in | rain mn in | humidity % | barometer mb |
| 20260906151908 | 92 | 76 | 1.0 | 5.0 | 0.00 | 0.00 | 0.00 | 30 | 1022.3 |
| 20260906151408 | 92 | 182 | 3.0 | 9.0 | 0.00 | 0.00 | 0.00 | 31 | 1022.3 |
| 20260906151130 | 92 | 89 | 3.0 | 9.0 | 0.00 | 0.00 | 0.00 | 30 | 1022.4 |
| 20260906150408 | 92 | 117 | 6.0 | 9.0 | 0.00 | 0.00 | 0.00 | 30 | 1022.3 |
| 20260906145908 | 92 | 145 | 2.0 | 6.0 | 0.00 | 0.00 | 0.00 | 29 | 1022.5 |
| 20260906145408 | 93 | 114 | 4.0 | 5.0 | 0.00 | 0.00 | 0.00 | 29 | 1022.4 |
| 20260906144908 | 92 | 85 | 3.0 | 5.0 | 0.00 | 0.00 | 0.00 | 30 | 1022.4 |
| 20260906144629 | 92 | 125 | 2.0 | 6.0 | 0.00 | 0.00 | 0.00 | 29 | 1022.4 |
| 20260906143917 | 92 | 87 | 5.0 | 9.0 | 0.00 | 0.00 | 0.00 | 30 | 1022.4 |
| 20260906143407 | 92 | 285 | 3.0 | 9.0 | 0.00 | 0.00 | 0.00 | 30 | 1022.5 |
| 20260906142906 | 92 | 68 | 0.0 | 9.0 | 0.00 | 0.00 | 0.00 | 30 | 1022.6 |
| 20260906142631 | 92 | 49 | 4.0 | 9.0 | 0.00 | 0.00 | 0.00 | 30 | 1022.7 |
| 20260906142129 | 92 | 80 | 1.0 | 7.0 | 0.00 | 0.00 | 0.00 | 30 | 1022.6 |
| 20260906141405 | 92 | 90 | 2.0 | 7.0 | 0.00 | 0.00 | 0.00 | 30 | 1022.6 |
| 20260906140905 | 92 | 90 | 3.0 | 7.0 | 0.00 | 0.00 | 0.00 | 31 | 1022.6 |
| 20260906140624 | 91 | 85 | 3.0 | 7.0 | 0.00 | 0.00 | 0.00 | 30 | 1022.7 |
| 20260906135904 | 91 | 71 | 4.0 | 7.0 | 0.00 | 0.00 | 0.00 | 31 | 1022.7 |
| 20260906135404 | 92 | 45 | 3.0 | 7.0 | 0.00 | 0.00 | 0.00 | 30 | 1022.7 |
| 20260906135351 | 92 | 258 | 2.0 | 7.0 | 0.00 | 0.00 | 0.00 | 31 | 1022.8 |
| 20260906134404 | 91 | 62 | 3.0 | 6.0 | 0.00 | 0.00 | 0.00 | 32 | 1022.9 |
| 20260906133903 | 91 | 92 | 4.0 | 6.0 | 0.00 | 0.00 | 0.00 | 31 | 1022.9 |
| 20260906133357 | 90 | 281 | 3.0 | 10.0 | 0.00 | 0.00 | 0.00 | 31 | 1022.8 |
| 20260906132857 | 91 | 25 | 6.0 | 10.0 | 0.00 | 0.00 | 0.00 | 31 | 1023.0 |
| 20260906132353 | 91 | 16 | 5.0 | 9.0 | 0.00 | 0.00 | 0.00 | 32 | 1023.0 |
| 20260906131848 | 91 | 73 | 6.0 | 9.0 | 0.00 | 0.00 | 0.00 | 31 | 1023.0 |
| 20260906131348 | 91 | 27 | 0.0 | 9.0 | 0.00 | 0.00 | 0.00 | 31 | 1023.0 |
| 20260906130845 | 90 | 18 | 5.0 | 10.0 | 0.00 | 0.00 | 0.00 | 31 | 1023.0 |
| 20260906130346 | 90 | 3 | 6.0 | 10.0 | 0.00 | 0.00 | 0.00 | 31 | 1023.1 |
| 20260906125841 | 90 | 54 | 6.0 | 12.0 | 0.00 | 0.00 | 0.00 | 32 | 1023.1 |
| 20260906125333 | 90 | 73 | 6.0 | 12.0 | 0.00 | 0.00 | 0.00 | 31 | 1023.3 |
| 20260906125053 | 90 | 89 | 6.0 | 12.0 | 0.00 | 0.00 | 0.00 | 35 | 1023.3 |
| 20260906124334 | 89 | 56 | 4.0 | 11.0 | 0.00 | 0.00 | 0.00 | 34 | 1023.4 |
| 20260906123833 | 90 | 65 | 6.0 | 14.0 | 0.00 | 0.00 | 0.00 | 33 | 1023.4 |
| 20260906123332 | 90 | 18 | 9.0 | 14.0 | 0.00 | 0.00 | 0.00 | 34 | 1023.4 |
| 20260906122832 | 90 | 48 | 5.0 | 10.0 | 0.00 | 0.00 | 0.00 | 35 | 1023.4 |
| 20260906122555 | 89 | 49 | 2.0 | 10.0 | 0.00 | 0.00 | 0.00 | 35 | 1023.4 |
| 20260906122046 | 89 | 82 | 7.0 | 11.0 | 0.00 | 0.00 | 0.00 | 35 | 1023.5 |
| 20260906121319 | 89 | 71 | 6.0 | 12.0 | 0.00 | 0.00 | 0.00 | 35 | 1023.5 |
| 20260906121251 | 89 | 66 | 7.0 | 12.0 | 0.00 | 0.00 | 0.00 | 35 | 1023.5 |
| 20260906120304 | 89 | 54 | 5.0 | 16.0 | 0.00 | 0.00 | 0.00 | 36 | 1023.5 |
| 20260906115806 | 89 | 20 | 6.0 | 16.0 | 0.00 | 0.00 | 0.00 | 36 | 1023.6 |
| 20260906115306 | 89 | 68 | 5.0 | 13.0 | 0.00 | 0.00 | 0.00 | 36 | 1023.5 |
| 20260906114805 | 89 | 72 | 3.0 | 12.0 | 0.00 | 0.00 | 0.00 | 37 | 1023.6 |
| 20260906114305 | 88 | 73 | 9.0 | 17.0 | 0.00 | 0.00 | 0.00 | 37 | 1023.6 |
| 20260906113805 | 89 | 78 | 11.0 | 17.0 | 0.00 | 0.00 | 0.00 | 36 | 1023.8 |
| 20260906113304 | 89 | 82 | 8.0 | 12.0 | 0.00 | 0.00 | 0.00 | 35 | 1023.7 |
| 20260906112805 | 89 | 72 | 5.0 | 15.0 | 0.00 | 0.00 | 0.00 | 36 | 1023.7 |
| 20260906112522 | 88 | 72 | 10.0 | 15.0 | 0.00 | 0.00 | 0.00 | 37 | 1023.7 |
| 20260906111805 | 88 | 66 | 7.0 | 14.0 | 0.00 | 0.00 | 0.00 | 37 | 1023.7 |
| 20260906111305 | 88 | 82 | 6.0 | 14.0 | 0.00 | 0.00 | 0.00 | 37 | 1023.8 |
| 20260906110804 | 88 | 86 | 8.0 | 13.0 | 0.00 | 0.00 | 0.00 | 37 | 1023.8 |
| 20260906110305 | 88 | 63 | 7.0 | 13.0 | 0.00 | 0.00 | 0.00 | 37 | 1023.8 |
| 20260906105804 | 88 | 75 | 4.0 | 11.0 | 0.00 | 0.00 | 0.00 | 38 | 1023.8 |
| 20260906105306 | 87 | 10 | 6.0 | 11.0 | 0.00 | 0.00 | 0.00 | 39 | 1023.9 |
| 20260906104805 | 87 | 79 | 5.0 | 13.0 | 0.00 | 0.00 | 0.00 | 38 | 1023.9 |
| 20260906104305 | 87 | 39 | 7.0 | 13.0 | 0.00 | 0.00 | 0.00 | 38 | 1023.9 |
| 20260906103804 | 87 | 69 | 4.0 | 12.0 | 0.00 | 0.00 | 0.00 | 37 | 1023.9 |
| 20260906103305 | 87 | 47 | 6.0 | 12.0 | 0.00 | 0.00 | 0.00 | 37 | 1024.0 |
| 20260906102804 | 87 | 51 | 7.0 | 12.0 | 0.00 | 0.00 | 0.00 | 38 | 1024.0 |
| 20260906102523 | 87 | 7 | 7.0 | 11.0 | 0.00 | 0.00 | 0.00 | 38 | 1024.0 |
| 20260906101812 | 86 | 24 | 7.0 | 12.0 | 0.00 | 0.00 | 0.00 | 38 | 1024.1 |
| 20260906101304 | 86 | 0 | 7.0 | 14.0 | 0.00 | 0.00 | 0.00 | 39 | 1024.1 |
| 20260906100805 | 85 | 62 | 8.0 | 14.0 | 0.00 | 0.00 | 0.00 | 40 | 1024.2 |
| 20260906100525 | 85 | 102 | 6.0 | 11.0 | 0.00 | 0.00 | 0.00 | 41 | 1024.1 |
| 20260906095804 | 85 | 44 | 7.0 | 11.0 | 0.00 | 0.00 | 0.00 | 41 | 1024.3 |
| 20260906095755 | 84 | 86 | 5.0 | 10.0 | 0.00 | 0.00 | 0.00 | 41 | 1024.3 |
| 20260906094805 | 85 | 47 | 6.0 | 10.0 | 0.00 | 0.00 | 0.00 | 41 | 1024.3 |
| 20260906094522 | 84 | 96 | 2.0 | 11.0 | 0.00 | 0.00 | 0.00 | 42 | 1024.4 |
| 20260906093805 | 83 | 82 | 4.0 | 12.0 | 0.00 | 0.00 | 0.00 | 42 | 1024.4 |
| 20260906093304 | 83 | 76 | 6.0 | 12.0 | 0.00 | 0.00 | 0.00 | 42 | 1024.5 |
| 20260906092804 | 83 | 82 | 7.0 | 12.0 | 0.00 | 0.00 | 0.00 | 41 | 1024.4 |
| 20260906092306 | 83 | 65 | 7.0 | 10.0 | 0.00 | 0.00 | 0.00 | 41 | 1024.4 |
| 20260906091805 | 83 | 63 | 5.0 | 10.0 | 0.00 | 0.00 | 0.00 | 42 | 1024.4 |
| 20260906091531 | 83 | 80 | 6.0 | 13.0 | 0.00 | 0.00 | 0.00 | 41 | 1024.4 |
| 20260906090805 | 83 | 45 | 6.0 | 13.0 | 0.00 | 0.00 | 0.00 | 40 | 1024.4 |
| 20260906090304 | 83 | 85 | 8.0 | 13.0 | 0.00 | 0.00 | 0.00 | 40 | 1024.4 |
| 20260906085806 | 83 | 72 | 4.0 | 11.0 | 0.00 | 0.00 | 0.00 | 39 | 1024.4 |
| 20260906085307 | 83 | 86 | 6.0 | 15.0 | 0.00 | 0.00 | 0.00 | 39 | 1024.4 |
| 20260906084806 | 83 | 94 | 6.0 | 15.0 | 0.00 | 0.00 | 0.00 | 39 | 1024.4 |
| 20260906084305 | 83 | 61 | 8.0 | 14.0 | 0.00 | 0.00 | 0.00 | 38 | 1024.3 |
| 20260906083806 | 83 | 61 | 6.0 | 13.0 | 0.00 | 0.00 | 0.00 | 39 | 1024.3 |
| 20260906083306 | 82 | 76 | 7.0 | 13.0 | 0.00 | 0.00 | 0.00 | 39 | 1024.3 |
| 20260906082805 | 82 | 92 | 7.0 | 12.0 | 0.00 | 0.00 | 0.00 | 39 | 1024.2 |
| 20260906082306 | 83 | 58 | 5.0 | 13.0 | 0.00 | 0.00 | 0.00 | 39 | 1024.3 |
| 20260906081806 | 83 | 68 | 10.0 | 13.0 | 0.00 | 0.00 | 0.00 | 39 | 1024.2 |
| 20260906081306 | 83 | 55 | 6.0 | 10.0 | 0.00 | 0.00 | 0.00 | 38 | 1024.1 |
| 20260906080806 | 83 | 82 | 7.0 | 13.0 | 0.00 | 0.00 | 0.00 | 39 | 1024.1 |
| 20260906080538 | 83 | 38 | 3.0 | 13.0 | 0.00 | 0.00 | 0.00 | 39 | 1024.1 |
| 20260906075806 | 82 | 75 | 7.0 | 10.0 | 0.00 | 0.00 | 0.00 | 40 | 1024.1 |
| 20260906075306 | 82 | 69 | 7.0 | 14.0 | 0.00 | 0.00 | 0.00 | 40 | 1024.1 |
| 20260906074806 | 82 | 79 | 8.0 | 14.0 | 0.00 | 0.00 | 0.00 | 40 | 1024.0 |
| 20260906074306 | 82 | 65 | 7.0 | 11.0 | 0.00 | 0.00 | 0.00 | 40 | 1024.0 |
| 20260906073806 | 82 | 92 | 8.0 | 11.0 | 0.00 | 0.00 | 0.00 | 40 | 1023.9 |
| 20260906073527 | 82 | 51 | 6.0 | 11.0 | 0.00 | 0.00 | 0.00 | 40 | 1023.9 |
| 20260906072806 | 82 | 37 | 6.0 | 9.0 | 0.00 | 0.00 | 0.00 | 40 | 1023.9 |
| 20260906072306 | 81 | 85 | 3.0 | 9.0 | 0.00 | 0.00 | 0.00 | 40 | 1023.8 |
| 20260906071806 | 81 | 71 | 4.0 | 9.0 | 0.00 | 0.00 | 0.00 | 40 | 1023.8 |
| 20260906071306 | 80 | 62 | 4.0 | 6.0 | 0.00 | 0.00 | 0.00 | 40 | 1023.8 |
| 20260906070806 | 80 | 13 | 4.0 | 5.0 | 0.00 | 0.00 | 0.00 | 40 | 1023.7 |
| 20260906070306 | 80 | 27 | 4.0 | 5.0 | 0.00 | 0.00 | 0.00 | 40 | 1023.7 |
| 20260906070026 | 79 | 13 | 3.0 | 5.0 | 0.00 | 0.00 | 0.00 | 41 | 1023.8 |
| 20260906065532 | 79 | 37 | 4.0 | 6.0 | 0.00 | 0.00 | 0.00 | 41 | 1023.7 |
| 20260906065027 | 78 | 0 | 2.0 | 6.0 | 0.00 | 0.00 | 0.00 | 42 | 1023.7 |
| 20260906064306 | 78 | 0 | 3.0 | 6.0 | 0.00 | 0.00 | 0.00 | 42 | 1023.7 |
| 20260906063805 | 78 | 0 | 2.0 | 6.0 | 0.00 | 0.00 | 0.00 | 43 | 1023.6 |
| 20260906063306 | 78 | 0 | 2.0 | 6.0 | 0.00 | 0.00 | 0.00 | 43 | 1023.6 |
| 20260906062806 | 77 | 0 | 4.0 | 6.0 | 0.00 | 0.00 | 0.00 | 42 | 1023.6 |
| 20260906062306 | 77 | 0 | 2.0 | 6.0 | 0.00 | 0.00 | 0.00 | 41 | 1023.6 |
| 20260906061805 | 77 | 0 | 4.0 | 6.0 | 0.00 | 0.00 | 0.00 | 41 | 1023.5 |
| 20260906061306 | 76 | 0 | 4.0 | 7.0 | 0.00 | 0.00 | 0.00 | 41 | 1023.3 |
| 20260906060806 | 76 | 0 | 5.0 | 7.0 | 0.00 | 0.00 | 0.00 | 40 | 1023.3 |
| 20260906060531 | 76 | 0 | 3.0 | 6.0 | 0.00 | 0.00 | 0.00 | 40 | 1023.1 |
| 20260906055805 | 76 | 0 | 5.0 | 9.0 | 0.00 | 0.00 | 0.00 | 40 | 1023.0 |
| 20260906055306 | 76 | 0 | 6.0 | 9.0 | 0.00 | 0.00 | 0.00 | 40 | 1023.0 |
| 20260906054805 | 76 | 0 | 5.0 | 9.0 | 0.00 | 0.00 | 0.00 | 40 | 1022.9 |
| 20260906054306 | 76 | 0 | 6.0 | 9.0 | 0.00 | 0.00 | 0.00 | 40 | 1023.0 |
| 20260906053801 | 75 | 0 | 5.0 | 7.0 | 0.00 | 0.00 | 0.00 | 40 | 1022.9 |
| 20260906053306 | 75 | 0 | 5.0 | 7.0 | 0.00 | 0.00 | 0.00 | 41 | 1022.8 |
| 20260906052806 | 75 | 0 | 4.0 | 5.0 | 0.00 | 0.00 | 0.00 | 41 | 1022.6 |
| 20260906052306 | 75 | 0 | 4.0 | 5.0 | 0.00 | 0.00 | 0.00 | 41 | 1022.6 |
| 20260906051806 | 75 | 0 | 3.0 | 5.0 | 0.00 | 0.00 | 0.00 | 41 | 1022.7 |
| 20260906051306 | 75 | 0 | 4.0 | 5.0 | 0.00 | 0.00 | 0.00 | 41 | 1022.7 |
| 20260906050805 | 74 | 0 | 2.0 | 5.0 | 0.00 | 0.00 | 0.00 | 41 | 1022.6 |
| 20260906050306 | 74 | 0 | 2.0 | 4.0 | 0.00 | 0.00 | 0.00 | 41 | 1022.5 |
| 20260906045806 | 74 | 0 | 2.0 | 3.0 | 0.00 | 0.00 | 0.00 | 41 | 1022.4 |
| 20260906045306 | 74 | 0 | 2.0 | 3.0 | 0.00 | 0.00 | 0.00 | 41 | 1022.3 |
| 20260906044806 | 75 | 0 | 0.0 | 2.0 | 0.00 | 0.00 | 0.00 | 41 | 1022.3 |
| 20260906044306 | 75 | 0 | 0.0 | 4.0 | 0.00 | 0.00 | 0.00 | 40 | 1022.3 |
| 20260906043806 | 75 | 0 | 2.0 | 5.0 | 0.00 | 0.00 | 0.00 | 40 | 1022.1 |
| 20260906043529 | 75 | 0 | 4.0 | 5.0 | 0.00 | 0.00 | 0.00 | 40 | 1022.1 |
| 20260906042805 | 75 | 0 | 4.0 | 5.0 | 0.00 | 0.00 | 0.00 | 40 | 1021.9 |
| 20260906042307 | 75 | 0 | 3.0 | 5.0 | 0.00 | 0.00 | 0.00 | 41 | 1022.0 |
| 20260906041806 | 75 | 0 | 4.0 | 7.0 | 0.00 | 0.00 | 0.00 | 41 | 1022.0 |
| 20260906041747 | 74 | 0 | 5.0 | 7.0 | 0.00 | 0.00 | 0.00 | 41 | 1021.9 |
| 20260906040806 | 74 | 0 | 4.0 | 6.0 | 0.00 | 0.00 | 0.00 | 42 | 1021.9 |
| 20260906040306 | 74 | 0 | 4.0 | 6.0 | 0.00 | 0.00 | 0.00 | 44 | 1021.8 |
| 20260906035806 | 74 | 0 | 2.0 | 4.0 | 0.00 | 0.00 | 0.00 | 44 | 1021.7 |
| 20260906035306 | 74 | 0 | 3.0 | 4.0 | 0.00 | 0.00 | 0.00 | 46 | 1021.8 |
| 20260906034805 | 74 | 0 | 1.0 | 2.0 | 0.00 | 0.00 | 0.00 | 46 | 1021.7 |
| 20260906034306 | 74 | 0 | 2.0 | 4.0 | 0.00 | 0.00 | 0.00 | 46 | 1021.8 |
| 20260906033806 | 74 | 0 | 2.0 | 4.0 | 0.00 | 0.00 | 0.00 | 46 | 1021.8 |
| 20260906033306 | 74 | 0 | 2.0 | 4.0 | 0.00 | 0.00 | 0.00 | 46 | 1021.6 |
| 20260906032806 | 74 | 0 | 1.0 | 2.0 | 0.00 | 0.00 | 0.00 | 46 | 1021.7 |
| 20260906032306 | 74 | 0 | 1.0 | 3.0 | 0.00 | 0.00 | 0.00 | 46 | 1021.7 |
| 20260906031806 | 74 | 0 | 2.0 | 3.0 | 0.00 | 0.00 | 0.00 | 45 | 1021.6 |
| 20260906031305 | 74 | 0 | 2.0 | 4.0 | 0.00 | 0.00 | 0.00 | 45 | 1021.5 |
| 20260906030806 | 74 | 0 | 2.0 | 4.0 | 0.00 | 0.00 | 0.00 | 45 | 1021.6 |
| 20260906030306 | 74 | 0 | 2.0 | 3.0 | 0.00 | 0.00 | 0.00 | 46 | 1021.5 |
| 20260906025805 | 74 | 0 | 1.0 | 4.0 | 0.00 | 0.00 | 0.00 | 46 | 1021.5 |
| 20260906025306 | 74 | 0 | 1.0 | 4.0 | 0.00 | 0.00 | 0.00 | 46 | 1021.5 |
| 20260906024805 | 75 | 0 | 3.0 | 4.0 | 0.00 | 0.00 | 0.00 | 47 | 1021.4 |
| 20260906024305 | 75 | 0 | 2.0 | 4.0 | 0.00 | 0.00 | 0.00 | 47 | 1021.3 |
| 20260906023806 | 75 | 0 | 1.0 | 2.0 | 0.00 | 0.00 | 0.00 | 47 | 1021.3 |
| 20260906023305 | 75 | 0 | 2.0 | 3.0 | 0.00 | 0.00 | 0.00 | 48 | 1021.3 |
| 20260906022806 | 75 | 0 | 1.0 | 4.0 | 0.00 | 0.00 | 0.00 | 48 | 1021.3 |
| 20260906022307 | 75 | 0 | 3.0 | 4.0 | 0.00 | 0.00 | 0.00 | 49 | 1021.2 |
| 20260906022023 | 75 | 0 | 1.0 | 3.0 | 0.00 | 0.00 | 0.00 | 49 | 1021.2 |
| 20260906021306 | 75 | 0 | 1.0 | 5.0 | 0.00 | 0.00 | 0.00 | 49 | 1021.2 |
| 20260906020806 | 75 | 0 | 1.0 | 5.0 | 0.00 | 0.00 | 0.00 | 49 | 1021.2 |
| 20260906020306 | 74 | 0 | 4.0 | 5.0 | 0.00 | 0.00 | 0.00 | 49 | 1021.3 |
| 20260906015806 | 74 | 0 | 2.0 | 3.0 | 0.00 | 0.00 | 0.00 | 50 | 1021.3 |
| 20260906015306 | 74 | 0 | 0.0 | 0.0 | 0.00 | 0.00 | 0.00 | 51 | 1021.2 |
| 20260906015025 | 73 | 0 | 0.0 | 0.0 | 0.00 | 0.00 | 0.00 | 51 | 1021.3 |
| 20260906014306 | 73 | 0 | 0.0 | 0.0 | 0.00 | 0.00 | 0.00 | 52 | 1021.2 |
| 20260906014024 | 73 | 0 | 0.0 | 0.0 | 0.00 | 0.00 | 0.00 | 53 | 1021.2 |
| 20260906013306 | 73 | 0 | 0.0 | 3.0 | 0.00 | 0.00 | 0.00 | 53 | 1021.2 |
| 20260906013025 | 72 | 0 | 2.0 | 3.0 | 0.00 | 0.00 | 0.00 | 54 | 1021.2 |
| 20260906012306 | 72 | 0 | 3.0 | 3.0 | 0.00 | 0.00 | 0.00 | 54 | 1021.2 |
| 20260906011807 | 72 | 0 | 1.0 | 3.0 | 0.00 | 0.00 | 0.00 | 54 | 1021.1 |
| 20260906011305 | 72 | 0 | 2.0 | 3.0 | 0.00 | 0.00 | 0.00 | 54 | 1021.1 |
| 20260906010806 | 73 | 0 | 2.0 | 3.0 | 0.00 | 0.00 | 0.00 | 52 | 1021.2 |
| 20260906010306 | 74 | 0 | 1.0 | 3.0 | 0.00 | 0.00 | 0.00 | 52 | 1021.2 |
| 20260906010247 | 74 | 0 | 0.0 | 0.0 | 0.00 | 0.00 | 0.00 | 52 | 1021.2 |
| 20260906005307 | 75 | 0 | 0.0 | 2.0 | 0.00 | 0.00 | 0.00 | 51 | 1021.2 |
| 20260906005030 | 75 | 0 | 2.0 | 2.0 | 0.00 | 0.00 | 0.00 | 50 | 1021.2 |
| 20260906004527 | 76 | 0 | 0.0 | 0.0 | 0.00 | 0.00 | 0.00 | 47 | 1021.3 |
| 20260906003806 | 77 | 0 | 0.0 | 2.0 | 0.00 | 0.00 | 0.00 | 47 | 1021.3 |
| 20260906003525 | 77 | 0 | 1.0 | 3.0 | 0.00 | 0.00 | 0.00 | 47 | 1021.2 |
| 20260906002806 | 77 | 0 | 2.0 | 3.0 | 0.00 | 0.00 | 0.00 | 48 | 1021.1 |
| 20260906002306 | 76 | 0 | 1.0 | 5.0 | 0.00 | 0.00 | 0.00 | 48 | 1021.0 |
| 20260906001805 | 76 | 0 | 3.0 | 5.0 | 0.00 | 0.00 | 0.00 | 49 | 1021.0 |
| 20260906001306 | 76 | 0 | 2.0 | 4.0 | 0.00 | 0.00 | 0.00 | 49 | 1021.0 |
| 20260906000806 | 75 | 0 | 3.0 | 4.0 | 0.00 | 0.00 | 0.00 | 50 | 1021.1 |
| 20260906000524 | 75 | 0 | 0.0 | 0.0 | 0.00 | 0.00 | 0.00 | 51 | 1021.0 |
| 20260905235805 | 75 | 0 | 0.0 | 0.0 | 0.00 | 0.00 | 0.00 | 51 | 1021.1 |
| 20260905235306 | 75 | 0 | 0.0 | 0.0 | 0.00 | 0.00 | 0.00 | 51 | 1021.1 |
| 20260905234805 | 76 | 0 | 0.0 | 0.0 | 0.00 | 0.00 | 0.00 | 50 | 1021.1 |
| 20260905234305 | 76 | 0 | 0.0 | 0.0 | 0.00 | 0.00 | 0.00 | 50 | 1021.0 |
| 20260905233804 | 76 | 0 | 0.0 | 0.0 | 0.00 | 0.00 | 0.00 | 50 | 1021.0 |
| 20260905233305 | 76 | 0 | 0.0 | 0.0 | 0.00 | 0.00 | 0.00 | 50 | 1020.8 |
| 20260905233029 | 76 | 0 | 0.0 | 0.0 | 0.00 | 0.00 | 0.00 | 50 | 1020.8 |
| 20260905232306 | 76 | 0 | 0.0 | 0.0 | 0.00 | 0.00 | 0.00 | 50 | 1020.8 |
| 20260905231804 | 76 | 0 | 0.0 | 1.0 | 0.00 | 0.00 | 0.00 | 49 | 1020.8 |
| 20260905231526 | 76 | 0 | 0.0 | 3.0 | 0.00 | 0.00 | 0.00 | 49 | 1020.8 |
| 20260905230804 | 76 | 0 | 1.0 | 3.0 | 0.00 | 0.00 | 0.00 | 48 | 1020.8 |
| 20260905230304 | 77 | 0 | 2.0 | 3.0 | 0.00 | 0.00 | 0.00 | 47 | 1020.7 |
| 20260905225804 | 78 | 0 | 0.0 | 3.0 | 0.00 | 0.00 | 0.00 | 47 | 1020.7 |
| 20260905225306 | 78 | 0 | 0.0 | 2.0 | 0.00 | 0.00 | 0.00 | 45 | 1020.6 |
| 20260905225021 | 78 | 0 | 0.0 | 2.0 | 0.00 | 0.00 | 0.00 | 45 | 1020.6 |
| 20260905224305 | 79 | 0 | 1.0 | 2.0 | 0.00 | 0.00 | 0.00 | 45 | 1020.5 |
| 20260905224025 | 80 | 0 | 1.0 | 2.0 | 0.00 | 0.00 | 0.00 | 44 | 1020.5 |
| 20260905223522 | 80 | 0 | 0.0 | 3.0 | 0.00 | 0.00 | 0.00 | 42 | 1020.6 |
| 20260905223024 | 80 | 0 | 2.0 | 3.0 | 0.00 | 0.00 | 0.00 | 42 | 1020.6 |
| 20260905222523 | 80 | 0 | 2.0 | 3.0 | 0.00 | 0.00 | 0.00 | 42 | 1020.5 |
| 20260905221804 | 81 | 0 | 2.0 | 3.0 | 0.00 | 0.00 | 0.00 | 41 | 1020.5 |
| 20260905221304 | 81 | 0 | 2.0 | 3.0 | 0.00 | 0.00 | 0.00 | 41 | 1020.5 |
| 20260905220804 | 81 | 0 | 1.0 | 2.0 | 0.00 | 0.00 | 0.00 | 41 | 1020.5 |
| 20260905220747 | 81 | 0 | 1.0 | 3.0 | 0.00 | 0.00 | 0.00 | 41 | 1020.4 |
| 20260905215805 | 81 | 0 | 2.0 | 3.0 | 0.00 | 0.00 | 0.00 | 41 | 1020.3 |
| 20260905215306 | 81 | 0 | 2.0 | 3.0 | 0.00 | 0.00 | 0.00 | 41 | 1020.3 |
| 20260905214802 | 81 | 0 | 1.0 | 2.0 | 0.00 | 0.00 | 0.00 | 42 | 1020.4 |
| 20260905214525 | 81 | 0 | 2.0 | 3.0 | 0.00 | 0.00 | 0.00 | 41 | 1020.4 |
| 20260905213805 | 81 | 0 | 1.0 | 3.0 | 0.00 | 0.00 | 0.00 | 42 | 1020.3 |
| 20260905213304 | 81 | 0 | 0.0 | 1.0 | 0.00 | 0.00 | 0.00 | 42 | 1020.4 |
| 20260905213022 | 81 | 0 | 0.0 | 1.0 | 0.00 | 0.00 | 0.00 | 42 | 1020.3 |
| 20260905212306 | 81 | 0 | 0.0 | 2.0 | 0.00 | 0.00 | 0.00 | 42 | 1020.3 |
| 20260905211804 | 81 | 0 | 1.0 | 2.0 | 0.00 | 0.00 | 0.00 | 42 | 1020.2 |
| 20260905211305 | 81 | 0 | 0.0 | 1.0 | 0.00 | 0.00 | 0.00 | 42 | 1020.2 |
| 20260905210804 | 82 | 0 | 0.0 | 2.0 | 0.00 | 0.00 | 0.00 | 41 | 1020.3 |
| 20260905210305 | 83 | 0 | 1.0 | 2.0 | 0.00 | 0.00 | 0.00 | 40 | 1020.3 |
| 20260905205805 | 83 | 0 | 0.0 | 0.0 | 0.00 | 0.00 | 0.00 | 39 | 1020.2 |
| 20260905205306 | 83 | 0 | 0.0 | 0.0 | 0.00 | 0.00 | 0.00 | 39 | 1020.1 |
| 20260905204804 | 83 | 0 | 0.0 | 2.0 | 0.00 | 0.00 | 0.00 | 39 | 1020.0 |
| 20260905204304 | 83 | 0 | 1.0 | 3.0 | 0.00 | 0.00 | 0.00 | 38 | 1020.1 |
| 20260905203805 | 83 | 0 | 1.0 | 4.0 | 0.00 | 0.00 | 0.00 | 38 | 1019.9 |
| 20260905203305 | 84 | 0 | 2.0 | 4.0 | 0.00 | 0.00 | 0.00 | 38 | 1019.9 |
| 20260905203022 | 84 | 0 | 3.0 | 5.0 | 0.00 | 0.00 | 0.00 | 38 | 1019.9 |
| 20260905202306 | 84 | 0 | 4.0 | 5.0 | 0.00 | 0.00 | 0.00 | 39 | 1019.8 |
| 20260905202024 | 84 | 0 | 3.0 | 5.0 | 0.00 | 0.00 | 0.00 | 39 | 1019.7 |
| 20260905201304 | 84 | 0 | 3.0 | 6.0 | 0.00 | 0.00 | 0.00 | 38 | 1019.6 |
| 20260905200805 | 84 | 0 | 4.0 | 6.0 | 0.00 | 0.00 | 0.00 | 38 | 1019.7 |
| 20260905200752 | 84 | 0 | 3.0 | 4.0 | 0.00 | 0.00 | 0.00 | 38 | 1019.7 |
| 20260905195805 | 85 | 0 | 2.0 | 4.0 | 0.00 | 0.00 | 0.00 | 38 | 1019.6 |
| 20260905195307 | 85 | 0 | 3.0 | 4.0 | 0.00 | 0.00 | 0.00 | 38 | 1019.5 |
| 20260905194804 | 85 | 0 | 2.0 | 5.0 | 0.00 | 0.00 | 0.00 | 38 | 1019.5 |
| 20260905194523 | 85 | 0 | 4.0 | 5.0 | 0.00 | 0.00 | 0.00 | 38 | 1019.4 |
| 20260905193805 | 85 | 0 | 2.0 | 6.0 | 0.00 | 0.00 | 0.00 | 37 | 1019.2 |
| 20260905193304 | 85 | 25 | 4.0 | 7.0 | 0.00 | 0.00 | 0.00 | 37 | 1019.0 |
| 20260905193022 | 86 | 35 | 4.0 | 7.0 | 0.00 | 0.00 | 0.00 | 36 | 1018.9 |
| 20260905192306 | 86 | 0 | 5.0 | 7.0 | 0.00 | 0.00 | 0.00 | 36 | 1018.9 |
| 20260905191805 | 86 | 0 | 5.0 | 7.0 | 0.00 | 0.00 | 0.00 | 36 | 1018.8 |
| 20260905191304 | 87 | 0 | 4.0 | 5.0 | 0.00 | 0.00 | 0.00 | 35 | 1018.7 |
| 20260905190804 | 87 | 0 | 3.0 | 5.0 | 0.00 | 0.00 | 0.00 | 34 | 1018.6 |
| 20260905190304 | 87 | 18 | 5.0 | 5.0 | 0.00 | 0.00 | 0.00 | 34 | 1018.6 |
| 20260905185804 | 87 | 0 | 3.0 | 7.0 | 0.00 | 0.00 | 0.00 | 34 | 1018.4 |
| 20260905185509 | 87 | 0 | 4.0 | 6.0 | 0.00 | 0.00 | 0.00 | 33 | 1018.4 |
| 20260905185500 | 87 | 83 | 4.0 | 7.0 | 0.00 | 0.00 | 0.00 | 34 | 1018.4 |
| 20260905184541 | 88 | 0 | 4.0 | 6.0 | 0.00 | 0.00 | 0.00 | 33 | 1018.4 |
| 20260905183804 | 88 | 68 | 4.0 | 6.0 | 0.00 | 0.00 | 0.00 | 33 | 1018.3 |
| 20260905183304 | 88 | 59 | 4.0 | 7.0 | 0.00 | 0.00 | 0.00 | 32 | 1018.2 |
| 20260905182804 | 88 | 82 | 5.0 | 7.0 | 0.00 | 0.00 | 0.00 | 32 | 1018.2 |
| 20260905182529 | 88 | 75 | 4.0 | 6.0 | 0.00 | 0.00 | 0.00 | 32 | 1018.1 |
| 20260905181804 | 89 | 65 | 5.0 | 6.0 | 0.00 | 0.00 | 0.00 | 32 | 1018.0 |
| 20260905181533 | 89 | 34 | 4.0 | 5.0 | 0.00 | 0.00 | 0.00 | 32 | 1018.0 |
| 20260905180805 | 89 | 66 | 3.0 | 9.0 | 0.00 | 0.00 | 0.00 | 31 | 1017.9 |
| 20260905180304 | 89 | 49 | 4.0 | 9.0 | 0.00 | 0.00 | 0.00 | 31 | 1017.9 |
| 20260905180028 | 90 | 44 | 5.0 | 7.0 | 0.00 | 0.00 | 0.00 | 31 | 1017.8 |
| 20260905175306 | 90 | 69 | 6.0 | 7.0 | 0.00 | 0.00 | 0.00 | 31 | 1017.7 |
| 20260905174804 | 90 | 17 | 4.0 | 7.0 | 0.00 | 0.00 | 0.00 | 31 | 1017.6 |
| 20260905174305 | 90 | 31 | 4.0 | 7.0 | 0.00 | 0.00 | 0.00 | 31 | 1017.6 |
| 20260905173805 | 91 | 45 | 4.0 | 7.0 | 0.00 | 0.00 | 0.00 | 31 | 1017.6 |
| 20260905173304 | 91 | 68 | 5.0 | 7.0 | 0.00 | 0.00 | 0.00 | 31 | 1017.6 |
| 20260905172805 | 91 | 54 | 4.0 | 6.0 | 0.00 | 0.00 | 0.00 | 31 | 1017.5 |
| 20260905172305 | 92 | 72 | 4.0 | 6.0 | 0.00 | 0.00 | 0.00 | 31 | 1017.5 |
| 20260905171804 | 92 | 80 | 3.0 | 7.0 | 0.00 | 0.00 | 0.00 | 30 | 1017.5 |
| 20260905171530 | 92 | 54 | 3.0 | 9.0 | 0.00 | 0.00 | 0.00 | 30 | 1017.3 |
| 20260905170804 | 93 | 65 | 5.0 | 9.0 | 0.00 | 0.00 | 0.00 | 29 | 1017.4 |
| 20260905170304 | 94 | 39 | 4.0 | 9.0 | 0.00 | 0.00 | 0.00 | 28 | 1017.4 |
| 20260905165805 | 95 | 73 | 5.0 | 9.0 | 0.00 | 0.00 | 0.00 | 27 | 1017.3 |
| 20260905165306 | 95 | 58 | 2.0 | 3.0 | 0.00 | 0.00 | 0.00 | 24 | 1017.4 |
| 20260905164804 | 96 | 257 | 1.0 | 2.0 | 0.00 | 0.00 | 0.00 | 21 | 1017.3 |
| 20260905164305 | 96 | 257 | 1.0 | 5.0 | 0.00 | 0.00 | 0.00 | 21 | 1017.4 |
| 20260905163805 | 96 | 258 | 3.0 | 5.0 | 0.00 | 0.00 | 0.00 | 21 | 1017.3 |
| 20260905163305 | 96 | 336 | 1.0 | 3.0 | 0.00 | 0.00 | 0.00 | 21 | 1017.4 |
| 20260905162805 | 96 | 312 | 2.0 | 4.0 | 0.00 | 0.00 | 0.00 | 22 | 1017.3 |
| 20260905162526 | 96 | 274 | 2.0 | 4.0 | 0.00 | 0.00 | 0.00 | 22 | 1017.3 |
| 20260905161804 | 96 | 271 | 2.0 | 4.0 | 0.00 | 0.00 | 0.00 | 22 | 1017.3 |
| 20260905161305 | 96 | 276 | 0.0 | 3.0 | 0.00 | 0.00 | 0.00 | 22 | 1017.3 |
| 20260905160804 | 96 | 278 | 2.0 | 3.0 | 0.00 | 0.00 | 0.00 | 23 | 1017.3 |
| 20260905160304 | 96 | 269 | 2.0 | 4.0 | 0.00 | 0.00 | 0.00 | 23 | 1017.3 |
| 20260905155804 | 95 | 250 | 2.0 | 5.0 | 0.00 | 0.00 | 0.00 | 23 | 1017.3 |
| 20260905155742 | 95 | 248 | 4.0 | 5.0 | 0.00 | 0.00 | 0.00 | 23 | 1017.4 |
| 20260905154805 | 96 | 241 | 2.0 | 4.0 | 0.00 | 0.00 | 0.00 | 22 | 1017.4 |
| 20260905154304 | 96 | 235 | 1.0 | 4.0 | 0.00 | 0.00 | 0.00 | 23 | 1017.4 |
| 20260905153805 | 95 | 230 | 3.0 | 6.0 | 0.00 | 0.00 | 0.00 | 23 | 1017.2 |
| 20260905153525 | 95 | 202 | 0.0 | 6.0 | 0.00 | 0.00 | 0.00 | 23 | 1017.3 |
| 20260905153249 | 96 | 199 | 3.0 | 6.0 | 0.00 | 0.00 | 0.00 | 23 | 1017.4 |